VK3BKO-13 Weather Reports


Display with metric or nautical units.
time (UTC)temp
F
wind
direction
speed
MPH
gust
MPH
rain 1hr
in
rain 24hr
in
rain mn
in
humidity
%
barometer
mb
20260506031704 64 9 4.0 6.0 0.00 0.00 0.00 59 1016.6
20260506030203 63 312 3.0 3.0 0.00 0.00 0.00 58 1016.6
20260506024704 64 358 6.0 8.0 0.00 0.00 0.00 56 1017.0
20260506023204 65 342 6.0 8.0 0.00 0.00 0.00 54 1017.3
20260506021703 63 333 3.0 3.0 0.00 0.00 0.00 58 1018.0
20260506020204 62 319 3.0 4.0 0.00 0.00 0.00 58 1018.0
20260506014704 62 346 2.0 3.0 0.00 0.00 0.00 60 1018.3
20260506013204 60 310 4.0 6.0 0.00 0.00 0.00 60 1018.7
20260506011703 60 343 6.0 9.0 0.00 0.00 0.00 61 1018.7
20260506010203 60 299 4.0 4.0 0.00 0.00 0.00 61 1019.0
20260506004704 60 342 6.0 8.0 0.00 0.00 0.00 60 1019.0
20260506003205 60 319 5.0 8.0 0.00 0.00 0.00 61 1019.3
20260506001704 60 338 2.0 2.0 0.00 0.00 0.00 62 1019.3
20260506000204 60 281 3.0 3.0 0.00 0.00 0.00 62 1019.7
20260505234703 59 353 2.0 3.0 0.00 0.00 0.00 64 1019.7
20260505233203 59 346 4.0 4.0 0.00 0.00 0.00 64 1019.7
20260505231703 59 334 3.0 4.0 0.00 0.00 0.00 64 1019.7
20260505230204 59 3 2.0 2.0 0.00 0.00 0.00 65 1019.7
20260505224703 58 22 4.0 4.0 0.00 0.00 0.00 66 1020.0
20260505223204 58 348 2.0 3.0 0.00 0.00 0.00 65 1019.7
20260505221704 58 339 2.0 3.0 0.00 0.00 0.00 66 1020.0
20260505220203 57 316 1.0 2.0 0.00 0.00 0.00 68 1019.7
20260505214703 57 330 1.0 2.0 0.00 0.00 0.00 69 1020.0
20260505213203 56 335 1.0 1.0 0.00 0.00 0.00 69 1020.0
20260505211704 56 355 2.0 2.0 0.00 0.00 0.00 70 1019.7
20260505210204 56 353 2.0 3.0 0.00 0.00 0.00 70 1020.0
20260505204704 56 340 4.0 4.0 0.00 0.00 0.00 70 1020.0
20260505203204 56 293 2.0 2.0 0.00 0.00 0.00 70 1019.7
20260505201704 56 345 2.0 2.0 0.00 0.00 0.00 70 1020.0
20260505200204 56 344 1.0 2.0 0.00 0.00 0.00 70 1020.0
20260505194704 56 351 2.0 3.0 0.00 0.00 0.00 71 1020.0
20260505193203 56 337 1.0 1.0 0.00 0.00 0.00 72 1020.0
20260505191703 56 353 1.0 1.0 0.00 0.00 0.00 72 1020.0
20260505190204 56 345 2.0 2.0 0.00 0.00 0.00 73 1020.4
20260505184703 56 344 1.0 1.0 0.00 0.00 0.00 73 1020.4
20260505183203 56 338 1.0 1.0 0.00 0.00 0.00 73 1020.4
20260505181705 56 306 1.0 2.0 0.00 0.00 0.00 73 1020.4
20260505180204 56 10 2.0 2.0 0.00 0.00 0.00 74 1020.4
20260505174704 56 353 1.0 2.0 0.00 0.00 0.00 75 1020.4
20260505173203 56 325 2.0 3.0 0.00 0.00 0.00 76 1020.4
20260505171703 56 336 1.0 2.0 0.00 0.00 0.00 76 1020.4
20260505170203 56 305 1.0 1.0 0.00 0.00 0.00 75 1020.4
20260505164703 56 336 1.0 1.0 0.00 0.00 0.00 76 1020.4
20260505163203 56 338 0.0 0.0 0.00 0.00 0.00 77 1020.7
20260505161703 56 337 0.0 0.0 0.00 0.00 0.00 77 1020.7
20260505160203 56 345 0.0 1.0 0.00 0.00 0.00 77 1021.0
20260505153204 56 343 0.0 1.0 0.00 0.00 0.00 77 1021.4
20260505151704 56 351 0.0 0.0 0.00 0.00 0.00 78 1021.4
20260505150204 56 339 0.0 0.0 0.00 0.00 0.00 79 1021.7
20260505140204 56 333 0.0 0.0 0.00 0.00 0.00 80 1021.4
20260505130204 54 332 0.0 0.0 0.00 0.00 0.00 79 1021.7
20260505124704 55 331 0.0 0.0 0.00 0.00 0.00 76 1021.7
20260505123204 56 331 0.0 0.0 0.00 0.00 0.00 74 1022.0
20260505121704 57 339 0.0 0.0 0.00 0.00 0.00 73 1022.0
20260505120204 58 336 0.0 1.0 0.00 0.00 0.00 72 1022.4
20260505114704 58 335 0.0 1.0 0.00 0.00 0.00 71 1022.0
20260505113203 58 332 1.0 1.0 0.00 0.00 0.00 70 1022.0
20260505111704 58 326 0.0 0.0 0.00 0.00 0.00 70 1022.0
20260505110204 58 338 1.0 1.0 0.00 0.00 0.00 68 1022.0
20260505101704 58 335 0.0 1.0 0.00 0.00 0.00 72 1021.7
20260505100204 58 319 0.0 1.0 0.00 0.00 0.00 73 1022.0
20260505094704 58 336 0.0 0.0 0.00 0.00 0.00 72 1021.7
20260505093203 58 338 0.0 0.0 0.00 0.00 0.00 71 1022.0
20260505091704 59 352 1.0 1.0 0.00 0.00 0.00 71 1022.0
20260505090204 59 316 1.0 1.0 0.00 0.00 0.00 71 1021.7
20260505084704 59 329 0.0 0.0 0.00 0.00 0.00 71 1021.7
20260505083204 59 344 1.0 2.0 0.00 0.00 0.00 71 1021.7
20260505081704 59 329 0.0 0.0 0.00 0.00 0.00 72 1021.4
20260505080203 59 311 2.0 2.0 0.00 0.00 0.00 72 1021.4
20260505074703 59 324 1.0 1.0 0.00 0.00 0.00 71 1021.4
20260505073203 59 288 3.0 3.0 0.00 0.00 0.00 71 1021.0
20260505071704 59 331 2.0 2.0 0.00 0.00 0.00 70 1021.0
20260505070204 60 273 4.0 6.0 0.00 0.00 0.00 68 1021.0
20260505064704 60 261 1.0 2.0 0.00 0.00 0.00 67 1020.7
20260505063203 60 295 2.0 3.0 0.00 0.00 0.00 65 1020.7
20260505061703 61 298 3.0 4.0 0.00 0.00 0.00 63 1020.7
20260505060203 61 319 2.0 2.0 0.00 0.00 0.00 63 1020.7
20260505054703 61 266 2.0 2.0 0.00 0.00 0.00 63 1020.4
20260505053203 61 317 3.0 3.0 0.00 0.00 0.00 64 1020.0
20260505051703 61 249 2.0 4.0 0.00 0.00 0.00 65 1020.0
20260505050203 60 320 2.0 3.0 0.00 0.00 0.00 66 1020.0
20260505041703 60 240 2.0 2.0 0.00 0.00 0.00 63 1019.7
20260505040203 61 288 2.0 2.0 0.00 0.00 0.00 66 1019.7
20260505034703 61 338 1.0 2.0 0.00 0.00 0.00 65 1019.3
20260505033204 61 328 1.0 2.0 0.00 0.00 0.00 64 1019.7